Date String (YYYY-MM-DD hh:mm:ss) UTC,Instrument flags,Ambient pressure (hPa),Sample flow (lpm),Bypass flow (lpm),Sample temperature (°C),Ambient temperature (°C),ASC tube jacket temperature (°C),LED temperature (°C),Box temperature (°C),Sample RH (%),Span deviation,Mass concentration (μg/m³),Mass concentration (μg/m³),Mass concentration (μg/m³)
DateTimeUTC,F1_M11,P_M11,Q1_M11,Q2_M11,T1_M11,T2_M11,T3_M11,T4_M11,T5_M11,U1_M11,ZSPAN_M11,X0_M11,X2_M11,X1_M11
2022-04-01 14:00:00,,0820.0,4.99,0.00,24.8,24.2,00.0,33.7,26.7,14.9,0000.0,0008.09,0003.20,0002.24
2022-04-01 14:01:00,,0820.0,5.00,0.00,24.8,24.2,00.0,33.7,26.7,14.9,0000.0,0008.09,0003.19,0002.25
2022-04-01 14:02:00,,0820.0,5.00,0.00,24.8,24.2,00.0,33.7,26.7,14.9,0000.0,0008.29,0003.23,0002.25
2022-04-01 14:03:00,,0820.0,5.00,0.00,24.9,24.2,00.0,33.7,26.7,14.9,0000.0,0009.40,0003.24,0002.24
2022-04-01 14:04:00,,0820.0,5.00,0.00,24.9,24.2,00.0,33.7,26.7,15.1,0000.0,0010.42,0003.28,0002.24
2022-04-01 14:05:00,,0820.1,5.00,0.00,24.9,24.2,00.0,33.7,26.8,15.0,0000.0,0010.47,0003.35,0002.25
2022-04-01 14:06:00,,0820.0,4.98,0.00,24.9,24.2,00.0,33.8,26.8,14.8,0000.0,0010.13,0003.39,0002.28
2022-04-01 14:07:00,,0820.1,5.00,0.00,24.9,24.2,00.0,33.8,26.8,14.6,0000.0,0009.93,0003.39,0002.28
2022-04-01 14:08:00,,0820.1,5.00,0.00,24.9,24.2,00.0,33.8,26.8,14.6,0000.0,0010.03,0003.41,0002.28
2022-04-01 14:09:00,,0820.1,5.01,0.00,24.9,24.2,00.0,33.8,26.8,14.6,0000.0,0009.91,0003.39,0002.26
2022-04-01 14:10:00,,0820.1,5.00,0.00,24.9,24.2,00.0,33.8,26.8,14.5,0000.0,0009.70,0003.38,0002.26
2022-04-01 14:11:00,,0820.2,5.00,0.00,24.9,24.2,00.0,33.8,26.8,14.6,0000.0,0009.50,0003.37,0002.26
2022-04-01 14:12:00,,0820.2,5.00,0.00,24.9,24.2,00.0,33.8,26.8,14.5,0000.0,0009.51,0003.39,0002.26
2022-04-01 14:13:00,,0820.2,5.00,0.00,24.9,24.2,00.0,33.8,26.8,14.5,0000.0,0009.29,0003.38,0002.27
2022-04-01 14:14:00,,0820.2,5.01,0.00,24.9,24.2,00.0,33.8,26.8,14.6,0000.0,0008.26,0003.37,0002.26
2022-04-01 14:15:00,,0820.2,5.00,0.00,24.9,24.2,00.0,33.8,26.7,14.5,0000.0,0007.12,0003.36,0002.26
2022-04-01 14:16:00,,0820.2,5.00,0.00,24.9,24.2,00.0,33.8,26.7,14.5,0000.0,0006.68,0003.30,0002.24
2022-04-01 14:17:00,,0820.3,5.00,0.00,24.9,24.1,00.0,33.8,26.7,14.6,0000.0,0006.67,0003.30,0002.21
2022-04-01 14:18:00,,0820.3,5.00,0.00,24.9,24.2,00.0,33.8,26.7,14.6,0000.0,0007.68,0003.31,0002.21
2022-04-01 14:19:00,,0820.3,5.00,0.00,24.9,24.2,00.0,33.8,26.8,14.6,0000.0,0008.01,0003.29,0002.21
2022-04-01 14:20:00,,0820.3,5.01,0.00,24.9,24.2,00.0,33.8,26.8,14.5,0000.0,0008.29,0003.29,0002.22
2022-04-01 14:21:00,,0820.3,5.01,0.00,24.9,24.2,00.0,33.8,26.8,14.6,0000.0,0008.32,0003.33,0002.22
2022-04-01 14:22:00,,0820.4,5.00,0.00,24.9,24.2,00.0,33.9,26.8,14.6,0000.0,0008.34,0003.34,0002.23
2022-04-01 14:23:00,,0820.4,4.99,0.00,25.0,24.2,00.0,33.9,26.8,14.5,0000.0,0008.72,0003.33,0002.22
2022-04-01 14:24:00,,0820.4,4.99,0.00,25.0,24.2,00.0,33.9,26.8,14.5,0000.0,0008.72,0003.32,0002.21
2022-04-01 14:25:00,,0820.3,5.00,0.00,25.0,24.2,00.0,33.9,26.8,14.5,0000.0,0009.03,0003.29,0002.21
2022-04-01 14:26:00,,0820.4,5.01,0.00,25.0,24.3,00.0,33.9,26.8,14.4,0000.0,0009.17,0003.26,0002.21
2022-04-01 14:27:00,,0820.3,5.00,0.00,25.0,24.3,00.0,33.9,26.8,14.4,0000.0,0009.12,0003.25,0002.22
2022-04-01 14:28:00,,0820.3,5.01,0.00,25.0,24.3,00.0,33.9,26.9,14.4,0000.0,0009.04,0003.24,0002.23
2022-04-01 14:29:00,,0820.4,5.00,0.00,25.0,24.3,00.0,33.9,26.9,14.6,0000.0,0008.69,0003.22,0002.23
2022-04-01 14:30:00,,0820.5,4.98,0.00,25.0,24.3,00.0,33.9,26.9,14.5,0000.0,0009.00,0003.24,0002.23
2022-04-01 14:31:00,,0820.5,5.01,0.00,25.0,24.2,00.0,33.9,26.8,14.6,0000.0,0008.73,0003.26,0002.25
2022-04-01 14:32:00,,0820.6,5.00,0.00,25.0,24.2,00.0,33.9,26.8,14.6,0000.0,0008.61,0003.20,0002.23
2022-04-01 14:33:00,,0820.6,5.00,0.00,25.0,24.2,00.0,33.9,26.8,14.7,0000.0,0008.51,0003.16,0002.23
2022-04-01 14:34:00,,0820.6,5.00,0.00,25.0,24.2,00.0,33.9,26.8,14.7,0000.0,0008.33,0003.20,0002.25
2022-04-01 14:35:00,,0820.6,5.00,0.00,25.0,24.2,00.0,33.9,26.8,14.7,0000.0,0008.40,0003.21,0002.26
2022-04-01 14:36:00,,0820.5,5.00,0.00,25.0,24.2,00.0,33.9,26.9,14.7,0000.0,0008.10,0003.25,0002.29
2022-04-01 14:37:00,,0820.6,5.00,0.00,25.0,24.3,00.0,33.9,26.9,14.6,0000.0,0007.89,0003.27,0002.30
2022-04-01 14:38:00,,0820.6,5.00,0.00,25.0,24.3,00.0,33.9,26.9,14.7,0000.0,0007.96,0003.26,0002.30
2022-04-01 14:39:00,,0820.5,4.99,0.00,25.0,24.3,00.0,33.9,26.9,14.6,0000.0,0008.03,0003.28,0002.32
2022-04-01 14:40:00,,0820.5,5.01,0.00,25.0,24.3,00.0,33.9,26.9,14.5,0000.0,0008.06,0003.31,0002.34
2022-04-01 14:41:00,,0820.6,4.98,0.00,25.0,24.2,00.0,33.9,26.9,14.5,0000.0,0007.21,0003.32,0002.35
2022-04-01 14:42:00,,0820.6,5.00,0.00,25.0,24.2,00.0,33.9,26.8,14.6,0000.0,0007.02,0003.28,0002.34
2022-04-01 14:43:00,,0820.6,5.00,0.00,25.0,24.1,00.0,33.9,26.8,14.7,0000.0,0007.54,0003.29,0002.35
2022-04-01 14:44:00,,0820.6,5.00,0.00,25.0,24.1,00.0,33.9,26.8,14.8,0000.0,0007.57,0003.33,0002.36
2022-04-01 14:45:00,,0820.6,5.00,0.00,25.0,24.2,00.0,33.9,26.8,14.7,0000.0,0007.70,0003.31,0002.36
2022-04-01 14:46:00,,0820.6,5.00,0.00,25.0,24.2,00.0,33.9,26.8,14.9,0000.0,0007.91,0003.27,0002.37
2022-04-01 14:47:00,,0820.6,5.00,0.00,25.0,24.2,00.0,33.9,26.8,15.0,0000.0,0008.13,0003.27,0002.36
2022-04-01 14:48:00,,0820.6,5.00,0.00,25.0,24.2,00.0,33.9,26.8,14.9,0000.0,0008.08,0003.25,0002.35
2022-04-01 14:49:00,,0820.6,5.00,0.00,24.9,24.2,00.0,33.9,26.7,14.7,0000.0,0008.05,0003.28,0002.38
2022-04-01 14:50:00,,0820.6,5.00,0.00,24.9,24.1,00.0,33.9,26.7,14.7,0000.0,0007.91,0003.28,0002.40
2022-04-01 14:51:00,,0820.6,5.00,0.00,24.9,24.1,00.0,33.9,26.7,14.9,0000.0,0007.80,0003.27,0002.42
2022-04-01 14:52:00,,0820.6,5.01,0.00,24.9,24.1,00.0,33.9,26.7,14.9,0000.0,0007.76,0003.28,0002.44
2022-04-01 14:53:00,,0820.6,5.00,0.00,24.9,24.1,00.0,33.9,26.7,14.8,0000.0,0007.90,0003.35,0002.47
2022-04-01 14:54:00,,0820.6,5.00,0.00,24.9,24.0,00.0,33.9,26.6,14.8,0000.0,0007.52,0003.37,0002.49
2022-04-01 14:55:00,,0820.7,5.00,0.00,24.8,24.0,00.0,33.9,26.6,14.6,0000.0,0007.81,0003.38,0002.53
2022-04-01 14:56:00,,0820.7,5.00,0.00,24.8,23.9,00.0,33.9,26.6,14.8,0000.0,0008.44,0003.41,0002.55
2022-04-01 14:57:00,,0820.8,5.00,0.00,24.8,23.9,00.0,33.9,26.6,14.9,0000.0,0008.56,0003.48,0002.59
2022-04-01 14:58:00,,0820.8,4.99,0.00,24.8,23.9,00.0,33.9,26.6,14.9,0000.0,0008.56,0003.49,0002.62
2022-04-01 14:59:00,,0820.9,4.99,0.00,24.8,23.9,00.0,33.8,26.6,15.1,0000.0,0008.88,0003.50,0002.64
